Chpt de France Moyenne Distance Arcey - G

Date : 08/05/2010

Place Nom Licence Catégorie Club Temps Points
1 DEVILLE Nelly 2401 D60 5402GE 0:27:18 4206
2 KENANE Abdelkader 1448 H70 5501GE 0:28:27 4036
3 HABERKORN Didier 2716 H70 2105BF 0:29:15 3926
4 KERFRIDEN J-Pierre 999 H70 2904BR 0:29:56 3836
5 OUDIN M-Reine 7574 D60 6804GE 0:30:28 3769
6 EUZEN J-Paul 16403 H70 6911AR 0:31:46 3615
7 ROBERT Martine 1087 D60 7004BF 0:32:20 3551
8 ROBERT Francoise 6491 D60 6913AR 0:33:00 3480
9 FRANTZ Francoise 6886 D60 2904BR 0:34:17 3349
10 LEFOUEST Joseph 1000 H70 2904BR 0:34:25 3336
11 DIEUDONNE Madeleine 1380 D60 7808IF 0:34:27 3333
12 VOGT Christiane 2557 D60 6709GE 0:34:34 3322
13 MOULIERE M-Bernadette 2888 D65 0207HF 0:35:22 3247
14 ABISSE Gisele 701 D65 2508BF 0:35:27 3239
15 RICHARD Nicole 14245 D60 0207HF 0:35:47 3209
16 JEANPIERRE M-Therese 3302 D65 8809GE 0:35:58 3193
17 HELIOT Claude 2349 H70 2604AR 0:36:01 3188
18 BERGER M-Jose 7182 D60 5703GE 0:36:04 3184
19 BEGUINOT Jacques 1443 H70 5501GE 0:36:08 3178
20 THIEBAULD Georges 4389 H70 8809GE 0:37:21 3074
21 RIFFARD M-Lucie 2446 D65 5702GE 0:39:16 2924
22 GEOFFROY Nicole 6443 D60 3408OC 0:39:48 2885
23 GUETIN Michel 2674 H70 2101BF 0:41:28 2769
24 KIEFFER Mireille 2680 D60 2101BF 0:44:16 2594
25 AST Claudine 2511 D60 8809GE 0:46:25 2474
26 POINSENOT Roger 11071 H70 2517BF 0:46:26 2473
27 POGU Paulette 4671 D60 5402GE 0:47:41 2408
28 BOCHET Roland 512 H70 3408OC 0:47:42 2407
29 DIRRINGER M-Claude 15630 D60 4902PL 0:47:51 2400
30 ETIENNE Bernadette 15324 D60 8807GE 0:48:47 2354
31 BOUCHERLE Ghislaine 4479 D60 3801AR 0:48:48 2353
32 DUVOUX France 6826 D60 4504CE 0:48:55 2347
33 COCAUT Yvonne 5497 D60 5604BR 0:50:30 2274
34 LEFOUEST M-Therese 1001 D70 2904BR 0:50:30 2274
35 LUDEWIG-JAMES Carol 15894 D70 5907HF 0:50:45 2263
36 SXAY Michelle 2115 D60 3705CE 0:52:17 2196
37 DODIN Genevieve 4392 D60 8809GE 0:54:04 2124
38 LAURENT Therese 725 D70 2508BF 0:57:06 2011
39 LAUNEY Noella 11368 D70 7203PL 1:00:12 1907
40 VESCOVO Odile 368 D60 6803GE 1:02:59 1823
41 TESTOUD Madeleine 934 D65 7707IF 1:03:28 1809
BEGUINOT M-Louise 1444 D65 5501GE pm 0